Wind_Speed
21 22 22 21 21 20 20 19 19 19 19 18 18 18 17 18 18 18 18 19 19 18 18 18 18 18 19 19 19 20 21 21 20 20 21 21 22 22 23 24 25 25 25
23 23 23 23 22 22 21 21 21 21 21 20 20 20 19 19 20 20 20 20 20 20 20 20 20 21 21 21 22 22 22 22 22 23 23 24 24 24 25 26 26 27 28
24 24 25 25 24 24 23 24 24 24 23 23 22 22 22 22 22 22 22 23 23 23 23 23 23 23 23 24 24 25 25 25 25 26 26 27 27 28 28 28 29 29 30
26 25 27 27 27 26 26 26 26 26 26 25 24 24 24 24 25 24 24 24 25 25 26 26 26 26 26 26 26 27 27 28 29 29 30 31 31 31 31 32 32 32 32
27 28 29 30 30 30 29 28 28 27 27 27 27 27 26 26 27 27 27 27 27 27 28 28 29 29 29 28 29 29 29 30 31 31 32 32 33 33 34 34 35 35 36
28 29 29 30 30 31 31 30 30 29 29 29 28 28 28 29 29 29 29 29 30 30 31 31 31 31 31 32 31 32 32 33 33 34 34 35 35 36 37 38 39 40 40
29 29 30 30 30 30 31 31 31 31 31 30 30 30 30 30 30 30 30 30 31 32 32 33 33 33 33 34 34 35 36 37 37 38 39 39 39 40 40 41 42 43 45
30 31 31 31 32 33 32 31 30 30 31 32 32 30 31 32 33 32 31 31 32 33 34 34 34 35 36 37 37 38 39 40 40 41 41 43 43 43 43 44 45 47 47
32 32 33 33 33 32 31 30 30 31 31 31 32 32 32 33 34 33 33 34 34 34 35 36 36 37 39 40 40 41 42 43 43 44 45 45 46 45 46 46 47 48 48
34 34 34 33 32 31 31 32 33 34 34 34 34 34 34 34 34 34 35 36 37 37 37 38 39 40 41 42 43 44 45 46 46 47 48 48 48 48 48 49 49 49 49
34 33 32 32 32 33 33 33 34 34 35 35 36 36 36 35 36 37 37 37 38 39 40 41 42 43 44 45 45 46 47 47 47 48 48 49 50 50 51 51 50 51 51
33 32 31 31 32 33 33 34 35 35 36 37 37 37 37 37 37 38 39 40 40 41 42 43 44 46 47 48 48 48 48 48 48 49 49 50 50 51 51 52 51 52 52
34 34 33 32 33 35 35 35 36 36 36 37 38 38 38 39 40 40 41 41 42 42 44 45 46 46 47 48 48 49 48 48 48 49 50 50 50 51 51 52 52 53 53
32 32 33 32 32 32 33 34 35 36 37 38 39 40 41 41 42 43 43 43 43 44 45 45 46 47 47 47 47 48 48 48 48 48 49 49 49 50 51 51 51 51 52
30 30 30 31 31 32 32 33 34 36 38 39 40 41 41 42 42 42 42 43 44 45 45 45 46 47 47 48 48 48 48 48 49 48 48 48 49 50 50 50 51 51 51
29 30 30 31 32 33 33 34 35 35 37 38 39 40 41 41 41 41 41 42 43 44 45 45 46 45 46 47 47 47 46 47 47 47 47 48 49 49 49 50 49 48 48
29 30 32 32 33 33 33 34 34 35 36 37 38 39 40 40 40 40 40 41 42 43 44 44 44 44 44 45 45 45 45 45 45 46 46 46 46 46 46 46 45 44 44
29 30 31 32 32 32 32 34 35 35 36 37 38 38 39 38 38 39 40 41 41 41 42 42 42 42 42 42 42 42 42 43 43 44 44 43 43 43 43 42 41 41 42
29 29 29 29 30 31 32 33 33 34 35 35 36 36 36 37 37 38 38 38 39 39 39 39 40 40 39 39 40 40 40 41 41 40 40 40 39 38 38 38 37 37 37
27 27 28 29 30 31 31 32 33 33 34 34 34 34 35 35 35 35 35 35 36 36 36 36 36 36 36 36 37 37 37 37 36 36 36 35 34 33 33 34 33 33 33
25 26 26 27 28 29 30 31 31 31 31 31 31 32 32 32 32 32 32 32 32 32 32 33 33 33 33 34 34 34 34 33 32 31 31 30 30 30 29 28 28 28 29
24 24 25 26 26 27 27 27 28 28 28 29 30 30 30 30 30 30 31 31 31 30 30 29 30 30 30 30 29 29 29 28 27 27 26 26 25 25 24 24 24 24 24
22 23 23 24 25 25 25 25 25 26 26 27 27 28 28 28 28 28 27 27 27 27 27 27 27 27 26 26 26 25 24 23 22 22 21 21 21 20 21 20 20 20 20
19 20 21 22 22 23 23 23 24 24 24 24 24 24 24 25 25 25 25 24 24 24 24 24 23 23 22 22 21 20 19 19 18 18 18 17 16 16 16 16 17 17 18
18 18 19 19 20 20 20 21 21 21 21 21 21 21 21 21 22 22 22 22 22 22 22 21 20 19 18 17 16 15 15 15 15 14 14 13 12 13 13 14 15 16 17
16 17 17 17 18 19 19 20 20 19 19 19 19 19 19 19 20 20 19 19 19 19 18 18 17 15 14 13 13 12 11 11 11 10 10 10 11 11 12 13 14 15 16
Wind_Direction
243 243 242 242 242 240 239 240 241 243 246 249 252 256 259 260 264 269 272 272 273 274 275 278 278 276 275 277 280 280 280 280 279 278 275 274 274 272 271 270 269 268 267
245 245 244 243 242 241 242 244 245 247 249 250 253 256 259 260 265 266 270 273 272 273 276 276 276 276 276 277 279 281 280 277 277 277 276 276 275 274 273 272 270 269 268
248 247 246 245 243 243 244 245 247 249 251 252 255 256 259 261 265 268 271 273 273 274 277 276 276 276 275 277 278 279 279 276 276 276 276 277 275 275 273 272 271 270 268
247 249 248 246 246 245 245 246 248 250 251 253 255 258 260 262 265 267 269 271 272 274 275 275 275 275 275 276 278 278 278 278 277 277 276 276 275 273 272 272 272 272 270
250 250 250 247 247 247 248 248 250 252 253 255 257 259 261 263 264 267 269 271 271 273 275 275 275 275 275 276 277 277 278 278 278 277 277 277 276 274 275 274 273 273 272
251 251 252 251 250 250 250 251 253 254 255 257 258 259 261 262 263 266 269 271 271 272 273 275 275 275 275 276 277 277 277 278 277 277 277 277 276 276 276 275 274 273 272
254 253 254 254 253 253 253 256 257 256 256 257 259 261 263 263 264 266 269 271 272 273 273 274 275 276 276 275 275 277 278 278 277 278 277 277 278 276 276 275 274 274 274
254 254 254 254 254 254 255 257 256 257 257 258 260 262 265 266 266 268 271 272 274 276 274 275 276 276 276 276 276 277 278 278 278 278 278 278 278 277 276 275 275 275 275
256 254 256 256 257 255 254 255 256 257 258 261 263 265 267 268 269 271 273 274 275 276 274 274 275 276 277 277 278 278 278 279 278 278 278 279 279 278 277 277 277 276 276
256 255 256 259 257 255 256 257 259 258 260 262 264 266 268 269 269 270 272 274 275 276 276 275 275 276 277 278 279 279 279 279 279 279 279 279 279 279 278 279 279 278 278
256 256 256 258 257 256 258 257 258 259 262 263 265 267 268 269 270 271 272 273 274 276 277 277 278 278 278 279 279 280 280 280 279 279 279 279 280 280 280 280 280 279 279
256 257 261 261 260 258 257 258 258 261 263 264 265 266 268 270 272 272 274 274 275 276 276 277 278 279 279 279 280 280 280 280 279 280 280 280 281 281 281 281 281 280 280
259 258 260 260 259 258 258 259 260 261 263 265 266 268 270 270 272 274 275 275 276 277 277 278 279 280 280 280 280 281 281 282 282 282 282 282 282 282 282 282 282 281 280
260 259 261 260 259 258 258 259 260 261 264 266 268 270 271 272 273 273 274 274 275 277 278 278 279 279 281 281 282 282 282 283 283 283 284 284 283 283 284 284 284 284 283
262 261 260 259 260 261 262 263 264 265 266 267 268 270 272 273 274 274 274 276 277 277 278 279 279 280 281 281 282 284 284 284 284 284 284 284 284 284 284 285 284 284 284
261 260 261 262 264 264 264 265 266 267 269 270 270 271 273 274 274 275 276 277 278 279 280 281 281 282 282 283 284 285 284 284 285 285 285 285 285 285 285 285 285 285 285
259 259 262 263 265 266 266 267 268 269 270 271 272 273 273 274 275 277 278 279 279 280 281 281 282 282 283 283 284 284 284 285 285 285 286 286 286 286 286 286 286 286 286
257 260 263 264 265 267 268 269 269 269 271 272 273 274 275 275 277 278 279 280 281 281 281 282 283 284 285 285 285 286 286 286 286 287 287 287 287 287 287 287 287 287 287
260 263 264 264 266 268 269 269 270 270 272 273 274 275 276 277 279 280 280 281 281 281 282 283 284 285 285 286 286 286 286 286 287 287 288 289 288 289 290 290 290 290 290
261 263 264 267 268 270 271 273 273 274 274 274 275 275 276 278 280 281 281 281 282 282 283 284 285 285 286 286 287 288 288 288 288 290 291 291 291 292 292 292 293 293 293
263 266 269 270 270 272 274 274 275 275 276 275 275 276 278 280 281 281 281 282 284 285 285 285 286 286 286 287 288 289 290 290 289 291 293 294 296 296 296 296 296 296 297
266 269 269 270 272 274 275 275 277 278 278 278 277 277 278 281 283 284 284 284 285 286 286 287 288 287 288 288 290 291 292 293 293 294 295 297 299 300 301 302 303 304 305
268 269 270 273 274 274 275 277 279 280 280 280 279 279 281 282 282 284 285 286 286 287 287 288 290 290 290 290 290 292 293 295 296 298 300 302 304 305 306 309 312 314 316
270 272 274 275 276 276 277 278 280 281 282 282 282 282 283 284 285 285 286 287 289 289 290 291 293 293 292 292 293 294 296 298 300 301 303 306 309 312 316 318 319 321 322
273 274 275 276 277 277 279 281 283 284 283 284 285 284 286 287 288 288 289 290 290 292 293 294 295 297 297 297 298 298 300 302 305 307 308 314 318 322 326 327 327 328 328
276 278 281 280 280 280 281 281 283 284 284 285 287 289 290 291 292 293 292 293 293 295 295 295 296 297 298 300 301 303 306 309 313 315 318 323 326 328 331 335 336 337 337
Height
5869 5870 5870 5872 5872 5873 5874 5875 5876 5877 5877 5878 5878 5878 5878 5878 5878 5877 5877 5876 5876 5876 5875 5875 5874 5874 5873 5872 5871 5871 5870 5870 5869 5869 5868 5868 5867 5867 5867 5867 5867 5866 5866
5865 5866 5867 5867 5868 5869 5871 5872 5872 5873 5873 5874 5874 5874 5874 5874 5873 5873 5873 5872 5872 5871 5871 5871 5870 5870 5869 5868 5867 5866 5866 5865 5864 5864 5863 5863 5862 5862 5861 5861 5860 5860 5860
5860 5861 5862 5863 5864 5865 5866 5867 5868 5868 5869 5869 5870 5870 5870 5869 5869 5869 5868 5868 5867 5867 5867 5866 5866 5865 5864 5863 5862 5862 5861 5860 5859 5858 5858 5857 5856 5856 5855 5855 5854 5854 5853
5854 5856 5857 5858 5859 5860 5861 5862 5862 5863 5864 5864 5865 5865 5865 5865 5864 5864 5863 5863 5862 5862 5861 5861 5860 5860 5859 5858 5857 5856 5855 5854 5853 5852 5851 5850 5849 5849 5848 5847 5847 5846 5845
5849 5851 5852 5853 5853 5855 5855 5856 5857 5858 5858 5858 5859 5859 5859 5859 5859 5858 5858 5857 5857 5856 5855 5855 5854 5854 5853 5852 5851 5850 5849 5848 5847 5845 5844 5843 5842 5841 5840 5839 5838 5838 5837
5844 5845 5846 5847 5848 5849 5850 5851 5851 5852 5852 5852 5853 5853 5853 5853 5853 5853 5852 5852 5851 5850 5849 5848 5848 5847 5846 5845 5844 5844 5842 5841 5839 5838 5836 5835 5834 5833 5831 5830 5829 5828 5827
5838 5839 5840 5840 5841 5843 5844 5844 5845 5845 5846 5846 5846 5847 5847 5846 5847 5847 5846 5845 5844 5843 5842 5841 5841 5840 5839 5838 5837 5836 5834 5833 5831 5829 5828 5827 5825 5824 5822 5821 5819 5818 5817
5831 5832 5833 5834 5835 5836 5837 5838 5838 5839 5839 5839 5839 5839 5840 5841 5840 5839 5839 5838 5837 5836 5835 5834 5833 5832 5830 5829 5828 5827 5825 5823 5822 5820 5818 5817 5815 5813 5812 5810 5809 5807 5805
5824 5825 5826 5827 5828 5829 5829 5830 5831 5831 5832 5832 5832 5833 5833 5833 5832 5832 5831 5830 5829 5828 5827 5826 5824 5823 5821 5820 5819 5818 5816 5813 5812 5810 5808 5806 5804 5802 5800 5798 5796 5795 5793
5817 5818 5819 5819 5820 5821 5822 5822 5823 5824 5824 5825 5825 5825 5825 5825 5824 5824 5823 5822 5821 5820 5819 5817 5816 5814 5812 5811 5809 5808 5805 5803 5801 5799 5797 5795 5792 5790 5788 5786 5784 5782 5780
5808 5809 5810 5811 5812 5813 5814 5814 5815 5816 5816 5817 5817 5817 5816 5816 5815 5815 5814 5813 5812 5811 5809 5808 5806 5804 5802 5800 5798 5797 5794 5792 5790 5787 5785 5782 5780 5777 5775 5773 5771 5769 5767
5801 5802 5802 5803 5804 5804 5805 5806 5807 5808 5808 5808 5808 5808 5808 5807 5806 5805 5804 5803 5802 5801 5799 5797 5796 5794 5791 5789 5787 5785 5783 5780 5778 5775 5772 5770 5767 5765 5762 5760 5757 5755 5752
5793 5794 5794 5795 5795 5796 5797 5797 5798 5799 5799 5799 5799 5799 5798 5797 5797 5795 5794 5793 5792 5790 5789 5787 5785 5782 5780 5777 5775 5773 5771 5768 5765 5763 5760 5757 5754 5751 5749 5746 5743 5741 5738
5785 5785 5786 5787 5787 5787 5788 5788 5789 5789 5789 5789 5789 5789 5788 5787 5786 5785 5784 5783 5781 5779 5778 5776 5773 5771 5768 5766 5763 5761 5758 5756 5753 5750 5747 5744 5741 5738 5735 5732 5729 5726 5724
5777 5777 5778 5779 5779 5779 5780 5779 5779 5779 5779 5779 5779 5778 5777 5777 5776 5775 5773 5772 5771 5768 5766 5764 5762 5759 5757 5754 5752 5749 5746 5743 5740 5738 5735 5732 5728 5725 5722 5719 5716 5713 5710
5769 5770 5770 5771 5771 5771 5771 5771 5770 5770 5770 5769 5769 5768 5767 5766 5765 5764 5762 5761 5759 5757 5755 5753 5751 5748 5745 5743 5740 5737 5734 5731 5728 5725 5722 5719 5716 5712 5709 5706 5703 5700 5697
5762 5762 5762 5762 5762 5762 5762 5762 5761 5761 5760 5759 5758 5757 5756 5755 5754 5753 5751 5750 5748 5746 5743 5741 5739 5737 5734 5732 5728 5725 5722 5719 5716 5714 5710 5707 5703 5700 5697 5694 5691 5687 5684
5754 5754 5754 5754 5754 5754 5753 5753 5752 5751 5750 5749 5748 5747 5746 5745 5744 5742 5741 5739 5737 5735 5732 5730 5728 5726 5723 5720 5717 5714 5711 5708 5705 5702 5699 5696 5692 5688 5685 5682 5679 5676 5672
5746 5746 5746 5746 5746 5745 5745 5744 5743 5741 5740 5739 5738 5737 5736 5735 5733 5732 5730 5728 5726 5724 5722 5720 5717 5715 5712 5710 5707 5704 5701 5698 5695 5692 5689 5685 5682 5678 5675 5672 5669 5665 5662
5738 5738 5738 5738 5737 5737 5736 5735 5734 5732 5731 5730 5729 5728 5727 5726 5724 5722 5720 5718 5716 5714 5712 5710 5707 5705 5703 5700 5697 5695 5692 5689 5686 5683 5680 5676 5673 5669 5667 5663 5660 5657 5653
5731 5731 5730 5730 5729 5728 5727 5726 5725 5723 5722 5721 5720 5719 5718 5716 5715 5713 5711 5709 5707 5705 5703 5700 5698 5695 5693 5691 5688 5685 5683 5680 5677 5674 5671 5668 5665 5662 5659 5655 5652 5649 5645
5723 5723 5723 5722 5722 5721 5719 5718 5716 5715 5714 5713 5712 5710 5709 5708 5706 5704 5703 5700 5698 5696 5694 5691 5689 5687 5684 5682 5680 5678 5675 5673 5671 5668 5665 5662 5659 5656 5652 5649 5646 5642 5639
5717 5717 5716 5715 5714 5713 5712 5711 5709 5708 5707 5705 5704 5703 5701 5699 5698 5696 5694 5692 5690 5688 5686 5684 5682 5679 5677 5675 5674 5672 5669 5667 5665 5662 5660 5657 5654 5651 5647 5644 5641 5637 5634
5711 5710 5710 5708 5707 5706 5705 5704 5703 5701 5700 5698 5697 5696 5694 5692 5691 5689 5687 5685 5683 5681 5679 5677 5675 5673 5671 5670 5668 5666 5664 5662 5660 5658 5656 5653 5650 5647 5644 5640 5637 5634 5631
5705 5705 5704 5703 5702 5701 5700 5698 5697 5695 5694 5693 5691 5689 5688 5686 5684 5682 5681 5679 5677 5675 5673 5671 5670 5668 5666 5665 5663 5662 5660 5659 5657 5655 5652 5650 5647 5644 5641 5638 5634 5631 5628
5701 5700 5699 5698 5697 5695 5694 5693 5692 5690 5689 5687 5686 5684 5682 5680 5678 5676 5675 5674 5672 5670 5669 5667 5665 5664 5662 5661 5660 5658 5657 5655 5654 5652 5649 5647 5645 5642 5640 5636 5633 5629 5625